EST,Max TemperatureF,Mean TemperatureF,Min TemperatureF,Max Dew PointF,MeanDew PointF,Min DewpointF,Max Humidity, Mean Humidity, Min Humidity, Max Sea Level PressureIn, Mean Sea Level PressureIn, Min Sea Level PressureIn, Max VisibilityMiles, Mean VisibilityMiles, Min VisibilityMiles, Max Wind SpeedMPH, Mean Wind SpeedMPH, Max Gust SpeedMPH,PrecipitationIn, CloudCover, Events, WindDirDegrees
2013-1-1,80,74,66,61,58,55,79,59,48,30.20,30.13,30.07,10,10,10,17,9,26,0.00,5,,138
2013-1-2,81,72,62,67,63,59,100,74,47,30.10,30.06,30.01,10,10,10,9,2,,0.00,4,,170
2013-1-3,82,73,64,67,65,64,100,76,53,30.14,30.09,30.04,10,10,10,12,3,,0.00,3,,158
2013-1-4,84,74,63,70,67,63,100,85,58,30.24,30.18,30.12,10,10,10,9,2,,0.00,3,Rain,42
2013-1-5,78,70,62,70,67,63,100,89,73,30.27,30.21,30.16,10,9,2,8,5,,0.10,5,Rain,7
2013-1-6,81,72,64,70,68,64,100,85,67,30.19,30.13,30.08,10,10,10,14,4,18,0.16,4,Rain,148
2013-1-7,78,73,68,70,67,65,96,87,66,30.18,30.13,30.09,10,10,4,9,4,,0.36,6,Rain,13
2013-1-8,82,76,70,72,70,68,97,79,66,30.21,30.15,30.08,10,10,10,17,8,22,0.12,4,Rain,111
2013-1-9,82,78,75,70,69,65,82,74,66,30.29,30.24,30.18,10,10,10,21,13,28,0.00,5,,105
2013-1-10,81,77,73,68,65,60,76,67,49,30.31,30.26,30.19,10,10,10,22,14,29,0.00,2,,100
2013-1-11,82,78,73,68,66,64,79,69,58,30.27,30.20,30.17,10,10,10,16,11,22,0.00,3,,107
2013-1-12,81,76,71,68,65,62,81,71,60,30.20,30.14,30.11,10,10,10,16,10,23,0.00,3,,102
2013-1-13,80,76,73,66,63,58,76,65,52,30.14,30.12,30.09,10,10,10,18,11,23,0.00,2,,113
2013-1-14,80,75,70,64,62,59,73,64,52,30.19,30.16,30.13,10,10,10,15,7,22,0.00,2,,113
2013-1-15,80,74,69,66,64,61,87,72,58,30.15,30.11,30.06,10,10,10,17,6,20,0.00,4,,111
2013-1-16,80,72,64,70,66,61,97,79,62,30.12,30.07,30.03,10,10,10,13,4,,0.25,4,Rain,128
2013-1-17,79,70,61,70,65,52,97,83,68,30.11,30.05,30.00,10,10,10,17,5,26,0.05,5,Rain,223
2013-1-18,71,62,54,58,51,45,75,64,55,30.25,30.18,30.12,10,10,10,12,8,18,0.00,5,Rain,357
2013-1-19,71,66,62,66,63,55,97,85,57,30.23,30.15,30.10,10,8,2,8,5,,0.54,7,Rain,334
2013-1-20,79,72,64,68,65,62,100,88,56,30.17,30.09,30.03,10,7,0,9,3,,0.11,5,Fog-Rain,348
2013-1-21,78,72,66,70,67,63,97,83,65,30.08,30.04,29.98,10,10,10,9,4,,0.25,4,Rain,91
2013-1-22,75,69,63,63,57,52,93,68,51,30.22,30.12,30.03,10,10,10,12,6,18,0.00,3,,342
2013-1-23,73,68,61,56,53,50,78,59,46,30.31,30.26,30.20,10,10,10,14,7,23,0.00,2,,31
2013-1-24,75,67,59,54,51,46,81,61,41,30.30,30.26,30.21,10,10,10,9,4,,0.00,1,,360
2013-1-25,75,68,60,57,53,49,84,62,43,30.30,30.24,30.19,10,10,10,8,3,,0.00,2,,25
2013-1-26,79,68,57,60,57,50,93,68,42,30.27,30.22,30.18,10,10,10,13,3,,0.00,0,,32
2013-1-27,78,70,63,63,60,57,90,69,50,30.30,30.26,30.21,10,10,10,16,6,22,0.00,2,,49
2013-1-28,80,76,72,65,62,59,73,64,52,30.33,30.27,30.24,10,10,10,18,13,24,0.00,3,,101
2013-1-29,78,74,71,67,65,62,81,71,62,30.24,30.20,30.14,10,10,10,17,11,25,0.00,3,,127
2013-1-30,79,76,72,67,64,61,84,70,58,30.12,30.06,29.99,10,10,10,21,12,29,0.00,2,,146
2013-1-31,72,66,60,70,58,38,97,75,44,30.19,30.08,29.97,10,10,10,16,6,24,0.01,4,Rain,299